Notices

What's New in latest Release from April 7th, 2021:

- Updated Glossary, including Speed of Maximum Gust, and Total Hourly Precipitation

- Updated national and regional climate services offices contacts and prices information

- Addition of station inventory lists for 1981-2010, 1971-2000, and 1961-1990 Normals.

If you haven't already, please take our survey and provide feedback about our website: https://eccc.sondage-survey.ca/f/LanguageSelection.aspx?s=442ca660-fcf1-47c0-95a9-59707d6fd709

Hourly Data Report for May 02, 2020

MIRAMICHI RCS
NEW BRUNSWICK
Current Station Operator: ECCC - MSC

47°00'34.000" N
65°27'54.000" W
33.00 m
8100989
71744
ACQ

Download Data

Hourly Data (May 2020)
Hourly Data Report for May 2, 2020
TIME
LST
Temp Definition
°C
Dew Point Definition
°C
Rel Hum Definition
%
Precip. Amount Definition
mm

Wind Dir Definition
10's deg

Wind Spd Definition
km/h
Visibility Definition
km
Stn Press Definition
kPa
Hmdx Definition


Wind Chill Definition


Weather Definition


00:00 11.6 11.4 98 LegendMM 19 12   99.57     LegendNANA
01:00 11.4 11.1 98 LegendMM 23 17   99.54     LegendNANA
02:00 10.8 10.8 100 LegendMM 22 12   99.53     LegendNANA
03:00 10.4 10.1 98 LegendMM 23 12   99.49     LegendNANA
04:00 10.1 10.1 100 LegendMM 25 13   99.52     LegendNANA
05:00 8.2 6.7 91 LegendMM 30 16   99.57     LegendNANA
06:00 7.3 5.9 91 LegendMM 30 12   99.62     LegendNANA
07:00 7.3 5.1 86 LegendMM 29 19   99.69     LegendNANA
08:00 7.2 4.3 82 LegendMM 30 17   99.75     LegendNANA
09:00 7.9 4.3 78 LegendMM 32 17   99.76     LegendNANA
10:00 9.1 3.9 70 LegendMM 31 20   99.79     LegendNANA
11:00 9.8 3.7 66 LegendMM 32 19   99.79     LegendNANA
12:00 10.6 2.8 59 LegendMM 32 20   99.82     LegendNANA
13:00 10.9 1.8 53 LegendMM 32 21   99.85     LegendNANA
14:00 11.7 1.6 50 LegendMM 32 18   99.85     LegendNANA
15:00 12.6 1.6 47 LegendMM 32 19   99.85     LegendNANA
16:00 12.0 1.2 47 LegendMM 33 20   99.88     LegendNANA
17:00 11.7 0.3 45 LegendMM 31 21   99.96     LegendNANA
18:00 11.8 -0.6 42 LegendMM 34 16   100.01     LegendNANA
19:00 10.9 -0.4 46 LegendMM 31 17   100.06     LegendNANA
20:00 9.5 -0.9 48 LegendMM 31 15   100.13     LegendNANA
21:00 7.7 -0.7 55 LegendMM 28 8   100.21     LegendNANA
22:00 6.0 -0.6 63 LegendMM 28 8   100.24     LegendNANA
23:00 4.0 -0.9 70 LegendMM 26 7   100.29     LegendNANA

Notes on Data Quality.

Legend

  • E = Estimated
  • M = Missing
  • NA = Not Available*
  • [empty] = Indicates an unobserved value
Date modified: